Voltar ao catálogo

ICEYE-X57

AtivoCiênciaSSO
NORAD 64578·PAYLOAD·🇺🇸 United States

Lançado Jun 23, 2025 de Vandenberg Space Force Base

Loading…

Próximas Passagens (próximas 24 horas)

TLE

AtualizadoSource: Space-Track

Época: Sep 14, 2026, 08:06 UTC

1 64578U 25135BC  26257.33786299  .00003514  00000-0  28131-3 0  9996
2 64578  97.8193  14.1868 0001904  52.9308 307.2089 15.00838174 67399

Acompanhe ICEYE-X57 em tempo real com AllMySat

Download on the App Store